Location: Observatoire
(46.1952°N, 5.3391°E)
Time: 03:56:19
(UTC+01:00)

Altair - Pass Details

Date: 26 February 2026
Orbit: 1502 x 1682 km, 47.2° (Epoch: 7 March)

Event Time Altitude Azimuth Distance (km) Brightness Sun altitude
Rises 08:52:10 0° 291° (WNW) 4,671 9.4 13.6°
Reaches altitude 10° 08:55:14 10° 287° (WNW) 3,704 9.0 14.1°
Maximum altitude 09:04:13 53° 214° (SW) 1,862 8.2 15.4°
Drops below altitude 10° 09:13:30 10° 141° (SE) 3,825 11.3 16.8°
Sets 09:16:45 0° 137° (SE) 4,833 11.7 17.2°
